Location: Garshuizen
(53.3675°N, 6.7248°E)
Time: 12:32:00
(UTC+00:00)

CZ-4C R/B - Pass Details

Date: 15 May 2026
Orbit: 409 x 496 km, 98.0° (Epoch: 7 June)

Event Time Altitude Azimuth Distance (km) Brightness Sun altitude
Rises 23:36:55 0° 24° (NNE) 2,453 7.9 -17.6°
Reaches altitude 10° 23:39:09 10° 37° (NE) 1,593 6.5 -17.5°
Maximum altitude 23:42:06 27° 97° (E) 928 4.4 -17.5°
Enters shadow 23:42:54 24° 121° (ESE) 996 4.4 -17.5°
